Location: Kalberh�ni
(46.4610°N, 7.2453°E)
Time: 05:14:54
(UTC+00:00)

SL-4 R/B - Visible Passes

Search period start: 26 October 2021 00:00
Search period end: 05 November 2021 00:00
Orbit: 427 x 661 km, 51.6° (Epoch: 25 October)

Date Brightness Start Highest point End Pass type
(mag) Time Alt. Az. Time Alt. Az. Time Alt. Az.
26 Oct 5.1 02:37:43 12° E 02:37:43 12° E 02:37:59 10° ESE visible
26 Oct 2.7 04:13:18 38° SW 04:13:18 38° SW 04:17:03 10° SSE visible
27 Oct 3.4 04:06:57 27° SSW 04:06:57 27° SSW 04:09:30 10° SSE visible
28 Oct 4.1 04:00:42 16° S 04:00:42 16° S 04:01:50 10° S visible
01 Nov 4.5 18:58:34 10° SSW 18:59:45 17° SSW 18:59:45 17° SSW visible
02 Nov 4.4 17:15:47 10° SE 17:16:52 11° SE 17:17:47 10° ESE visible
02 Nov 3.9 18:51:03 10° SW 18:53:21 27° SSW 18:53:21 27° SSW visible
03 Nov 4.3 17:06:56 10° SSE 17:09:20 14° SE 17:11:16 11° ESE visible
03 Nov 3.2 18:43:36 10° SW 18:46:49 41° SSW 18:46:49 41° SSW visible
04 Nov 4.0 16:58:44 10° S 17:01:51 18° SE 17:04:38 11° E visible
04 Nov 2.6 18:36:11 10° SW 18:40:11 60° SSW 18:40:11 60° SSW visible
